Wind_Speed
9 10 10 9 9 10 11 11 12 12 12 12 12 12 12 12 14 13 11 10 10 9 9 9 9 9 8 9 8 7 7 6 8 9 7 8 8 8 9 9 11 13 13 12 11 12 11 9 11 12 10 8 6 8 12 15 15 13 11 9 6 5
12 11 11 10 10 9 11 11 11 12 12 11 11 12 11 12 14 14 13 11 10 10 10 10 10 10 9 9 9 8 6 6 8 8 6 7 7 8 9 10 12 13 13 13 11 11 11 9 11 13 11 9 8 9 11 15 14 13 11 9 6 5
13 12 12 11 10 10 11 11 11 11 11 11 10 10 10 12 14 13 13 12 12 11 10 9 9 10 10 10 9 7 7 7 8 7 6 6 7 8 9 11 13 13 13 13 12 11 10 10 11 14 13 10 8 8 11 14 13 11 10 8 6 5
13 13 12 11 11 10 11 11 11 11 10 11 10 9 9 10 12 12 13 13 12 10 9 8 7 8 9 10 9 9 8 8 8 7 6 6 7 8 9 11 12 12 13 13 13 12 10 10 11 14 15 11 8 8 10 13 12 11 10 8 7 5
13 14 13 12 12 11 12 12 12 11 11 11 10 10 8 9 10 10 12 12 11 9 7 7 6 7 8 10 11 11 11 10 9 8 7 6 7 9 10 11 12 12 13 13 12 12 10 9 10 14 16 12 9 8 9 12 12 10 9 7 7 6
13 13 12 13 12 13 14 12 12 12 12 12 11 11 9 9 9 9 9 11 11 9 7 8 7 7 8 11 12 12 12 11 10 9 7 7 7 8 10 11 12 12 13 12 11 10 10 7 7 12 15 14 11 8 7 10 12 10 8 8 7 6
11 11 12 13 13 14 14 12 12 11 12 12 12 12 10 10 9 9 9 10 11 10 9 9 8 8 8 10 12 13 11 10 9 8 8 7 8 9 10 12 12 12 12 12 11 10 9 7 6 9 13 12 10 7 5 8 12 11 9 8 6 5
10 10 11 11 12 13 13 12 12 11 12 13 13 13 12 11 11 10 10 10 11 11 10 9 8 9 10 10 12 14 12 10 9 7 8 8 8 9 11 13 13 12 12 12 12 11 9 8 8 11 11 9 8 7 6 8 12 13 10 8 6 5
10 9 10 10 11 11 10 9 10 10 11 13 14 14 12 12 12 10 10 11 11 12 11 9 8 9 10 11 13 15 15 13 11 9 8 9 9 10 11 14 14 13 13 13 13 13 12 9 10 13 12 9 8 7 7 8 12 14 12 9 8 6
11 12 13 12 11 10 8 7 7 8 10 11 13 14 12 12 12 11 10 10 11 11 10 8 8 10 11 13 15 17 18 16 14 12 11 11 11 11 12 13 14 13 13 14 14 14 14 14 13 14 13 12 10 8 7 9 11 14 13 10 9 7
13 15 14 13 12 11 10 9 8 6 8 10 11 12 11 11 11 10 9 9 10 10 11 9 9 10 12 14 17 19 20 18 16 15 14 14 13 14 14 13 14 14 15 15 15 15 15 17 18 15 14 14 14 10 9 10 10 13 12 11 10 10
15 16 15 13 11 10 9 10 9 8 8 8 7 8 10 10 9 7 7 9 9 9 9 8 8 10 10 12 16 19 20 19 18 17 16 16 15 16 16 15 15 16 16 16 17 17 17 19 21 17 15 14 15 14 12 12 12 12 12 12 12 12
15 15 15 13 12 11 10 9 8 8 10 9 7 5 7 9 8 6 6 8 7 6 7 7 9 10 11 12 14 15 17 18 18 18 18 18 18 19 19 17 16 17 18 17 18 18 17 21 23 19 17 16 15 15 14 14 14 14 13 12 12 13
14 14 14 13 12 12 10 8 8 8 9 9 7 7 6 6 7 6 7 7 5 5 5 7 8 9 11 13 13 13 14 15 17 19 20 20 19 19 20 19 18 19 20 19 18 16 16 22 26 20 19 18 17 16 16 16 16 16 15 13 13 13
13 13 13 12 11 11 9 8 9 7 8 8 6 6 6 5 6 6 5 5 5 6 5 5 7 8 10 13 14 13 13 12 13 16 20 21 21 20 20 19 18 19 21 20 18 16 16 22 25 21 20 20 19 18 17 17 18 18 16 15 14 14
13 13 12 11 11 10 8 9 11 8 8 9 7 6 6 6 6 6 4 4 5 6 6 6 6 7 7 10 12 12 11 10 9 11 15 18 20 20 19 17 15 15 18 19 17 14 15 21 22 18 19 20 20 20 18 17 18 19 18 16 16 15
14 14 14 13 12 9 8 11 11 9 9 9 7 6 6 8 8 7 6 5 5 5 5 5 5 6 5 6 7 9 11 11 8 7 11 14 16 17 18 15 12 13 15 17 17 14 14 19 21 18 18 18 18 18 19 18 17 18 19 18 17 17
15 15 16 15 14 13 13 14 12 9 8 8 9 9 9 11 10 8 6 4 4 5 4 4 5 5 5 5 6 7 10 11 9 7 8 12 14 16 17 15 13 15 16 18 19 16 15 17 21 21 18 18 17 16 18 19 17 17 19 20 20 19
17 16 17 17 16 16 15 14 14 11 9 8 9 10 11 11 11 8 6 5 4 5 4 4 4 4 4 4 4 4 6 8 7 5 6 10 13 14 16 16 17 18 19 19 17 16 16 14 17 22 21 19 17 16 18 19 18 18 19 21 21 21
20 19 19 19 17 15 13 13 13 12 10 10 9 8 8 9 9 6 4 4 4 4 5 4 4 3 2 2 2 2 4 5 3 2 3 7 10 13 15 17 19 18 18 19 16 16 16 11 10 16 19 19 19 17 18 19 20 20 21 21 21 22
23 21 20 19 17 15 14 13 13 13 11 10 8 7 6 6 5 4 3 4 4 3 3 3 3 2 1 1 1 1 1 2 3 1 1 2 5 10 13 15 17 14 13 17 18 17 16 11 9 11 13 14 18 20 21 20 21 22 23 23 22 22
24 23 21 19 17 16 15 14 16 16 13 11 9 8 8 7 5 4 4 5 3 2 2 2 1 1 2 1 2 3 4 4 2 3 3 1 2 5 8 12 15 14 11 15 17 17 18 15 10 8 7 6 11 18 22 23 22 22 23 24 24 23
25 24 22 20 17 16 15 16 18 16 14 12 10 8 8 7 5 4 5 5 4 3 2 1 2 3 4 3 3 3 3 5 5 5 4 3 3 3 4 6 9 11 13 14 13 13 18 19 14 8 3 2 4 7 12 17 21 24 25 25 26 25
25 24 22 19 17 17 17 18 18 15 13 13 10 8 8 7 5 3 4 4 3 2 1 2 4 5 5 4 2 2 1 2 4 5 5 4 5 5 5 6 7 7 10 14 12 10 13 19 19 11 4 1 1 1 4 8 15 23 26 25 26 27
25 23 21 19 19 20 20 20 19 16 14 13 11 9 9 8 7 5 4 3 3 1 1 3 4 4 3 3 2 1 0 1 1 2 4 4 5 5 5 6 7 7 7 9 10 10 13 18 22 18 11 4 1 0 3 3 7 15 23 25 27 29
25 23 21 21 23 23 22 21 20 19 16 15 14 11 10 10 9 7 5 4 2 2 3 4 4 4 2 2 2 1 0 1 1 0 1 3 3 3 3 5 6 7 7 8 8 8 10 14 18 19 17 13 7 3 4 1 1 4 11 18 23 27
26 24 23 24 24 23 21 19 19 19 19 19 17 13 11 10 9 8 6 4 3 4 4 5 5 5 4 2 2 1 0 1 1 1 0 0 1 2 3 4 5 6 7 7 7 7 8 9 12 14 15 17 16 12 9 5 3 1 2 7 14 19
28 26 25 25 24 22 20 19 18 19 20 19 17 15 13 11 9 8 7 5 4 4 4 4 6 6 4 2 2 1 1 1 1 0 1 1 1 3 3 3 3 5 6 7 7 7 8 8 8 10 12 15 17 17 17 14 10 5 2 2 6 10
30 29 27 26 24 22 20 19 19 20 20 19 17 16 14 12 10 8 8 7 6 4 4 5 5 4 4 2 1 0 0 1 1 1 1 2 3 4 4 4 4 5 5 6 6 6 7 8 7 9 10 13 15 16 18 19 16 12 6 4 3 4
33 31 29 26 25 23 21 20 20 21 21 20 19 17 15 14 12 9 8 8 7 6 5 5 5 4 3 1 2 3 3 4 4 3 3 3 2 3 4 4 5 6 6 6 6 6 6 7 8 10 11 12 13 13 13 12 14 15 10 8 7 6
34 33 30 27 26 25 23 21 22 22 21 22 22 20 18 17 14 12 10 9 8 8 6 5 5 5 3 3 3 4 4 4 4 4 4 4 4 5 6 7 8 8 8 7 7 7 7 6 7 9 11 12 14 15 14 13 15 16 11 8 8 6
34 34 32 29 28 27 25 23 23 23 21 22 25 23 21 19 17 15 13 11 10 10 8 7 6 5 4 4 3 1 2 3 4 5 5 6 7 8 9 10 11 11 10 10 9 9 9 9 9 9 11 12 13 15 18 19 20 19 15 15 12 7
35 35 33 31 30 29 27 25 25 25 23 22 24 24 22 20 18 18 16 14 14 13 11 10 8 7 6 5 3 2 3 4 5 7 8 9 9 10 11 12 13 13 13 12 11 10 10 10 10 11 12 13 14 15 18 20 21 20 19 21 18 11
36 36 35 33 32 31 29 27 26 26 25 24 24 24 23 20 20 20 18 16 15 15 14 13 11 9 9 8 6 5 5 6 6 8 10 11 10 10 11 12 13 14 13 13 13 12 12 11 11 11 12 13 14 15 17 18 20 21 20 20 18 15
36 36 36 35 34 33 31 29 28 28 28 26 25 25 23 21 21 22 20 17 16 15 15 14 12 11 10 10 8 7 7 7 7 8 10 9 9 9 11 13 13 13 13 13 14 15 14 14 14 13 13 14 14 15 16 17 19 20 20 21 21 20
37 37 38 37 36 35 32 30 28 29 29 27 25 25 24 23 23 22 21 19 17 17 16 14 13 13 11 10 9 9 9 8 7 8 8 8 7 8 10 12 14 15 14 14 15 15 15 16 16 16 15 15 16 16 16 16 17 18 20 21 22 23
37 37 38 38 38 36 34 32 30 29 29 27 26 25 25 24 23 22 22 20 18 18 18 16 14 14 12 11 10 10 9 8 7 8 7 7 7 8 10 13 14 15 16 16 16 15 15 15 16 17 17 17 17 17 17 16 16 16 17 20 22 23
Wind_Direction
163 159 163 164 166 163 161 165 164 163 166 170 175 180 187 188 184 181 181 182 181 182 180 182 187 184 181 183 178 174 165 153 172 180 168 160 160 158 155 150 149 150 151 156 158 164 179 185 183 182 169 147 95 95 139 159 164 160 155 148 136 125
156 154 160 164 169 169 171 174 172 170 171 172 176 184 187 189 191 189 187 187 189 190 185 188 191 185 183 183 179 173 162 156 170 176 169 162 163 164 160 153 153 156 154 156 160 161 173 180 183 185 173 150 106 98 137 157 162 160 155 149 138 126
157 155 157 159 166 174 179 180 179 177 173 172 179 184 183 187 193 196 193 191 193 191 187 192 196 189 184 180 178 179 170 163 167 170 169 163 161 162 161 159 158 160 159 159 161 161 172 177 180 186 179 159 125 112 142 159 165 166 159 150 141 129
158 160 161 162 168 179 186 183 181 181 176 175 181 183 188 192 193 201 199 194 194 187 183 190 199 201 193 185 182 181 173 165 166 164 164 161 156 160 163 164 162 162 162 162 161 155 163 172 179 189 187 173 145 130 150 165 171 170 164 155 145 135
162 166 169 169 172 181 184 181 182 184 183 182 184 185 197 200 197 206 201 196 195 189 189 195 204 208 206 200 189 181 173 166 168 162 156 160 159 162 164 167 168 166 164 166 164 150 142 154 174 189 196 188 162 145 153 168 175 173 171 162 152 145
167 170 174 173 173 180 180 177 182 186 187 189 190 189 197 204 205 211 205 200 200 201 205 207 207 200 209 208 188 177 173 171 173 162 154 161 166 166 166 171 176 175 172 172 171 158 137 135 166 187 200 195 174 160 156 170 179 180 179 173 158 151
162 169 173 174 176 180 182 180 183 187 188 191 194 194 199 207 209 214 214 211 209 209 211 215 210 195 204 206 189 181 179 180 180 168 159 163 167 168 168 175 184 186 185 184 182 176 153 135 150 174 185 186 177 177 179 183 188 189 186 180 169 163
141 160 165 170 178 180 185 188 190 192 193 194 197 200 202 206 210 216 218 217 217 217 219 223 217 208 203 195 192 190 186 187 190 181 168 170 176 174 172 177 188 193 196 198 197 199 186 159 149 156 166 174 179 188 207 203 195 193 191 190 189 187
125 143 147 153 167 173 180 187 193 197 198 198 200 205 207 208 211 216 219 216 218 221 225 221 210 216 204 190 193 192 190 190 192 194 183 183 190 191 188 186 192 199 204 210 214 218 218 200 171 165 172 180 184 191 214 209 194 194 196 201 206 204
123 133 137 138 145 148 150 158 173 187 194 195 199 206 210 212 213 216 220 215 213 216 220 214 203 210 202 193 192 189 193 195 193 197 196 198 204 209 209 203 204 210 215 221 227 232 236 227 199 181 182 185 186 189 210 209 195 200 206 208 212 212
130 134 135 132 130 128 126 124 123 143 172 185 195 202 203 208 213 215 217 214 212 212 217 218 205 207 206 200 195 193 198 200 199 200 201 201 208 218 223 222 223 226 231 236 241 247 248 232 207 192 187 187 190 189 198 205 199 205 212 217 220 219
134 137 137 132 127 125 122 116 107 109 128 148 169 190 197 198 203 205 206 211 211 205 211 213 203 206 211 208 203 201 203 204 205 207 206 205 209 219 226 232 237 242 243 246 252 255 255 232 206 197 194 190 192 193 198 205 204 205 212 223 226 225
135 136 136 135 131 128 121 115 115 119 117 113 107 129 174 190 197 193 182 186 186 183 187 189 199 206 202 206 213 211 208 208 211 213 212 210 212 218 225 231 240 249 250 255 257 255 255 232 209 202 202 197 197 201 205 209 209 208 214 224 225 227
140 139 134 132 135 132 126 122 128 134 129 118 97 93 114 154 184 192 184 172 142 134 159 175 196 206 195 195 207 212 209 209 214 217 217 216 217 219 226 231 239 248 250 258 256 255 258 230 213 209 208 204 203 206 210 212 217 217 217 221 221 225
146 145 141 139 141 138 137 139 136 136 140 137 122 110 107 125 167 188 199 184 140 123 132 161 185 196 197 196 201 206 208 210 213 214 217 220 223 224 225 230 242 252 253 257 253 253 253 224 212 213 212 211 211 211 214 214 219 223 224 223 222 223
153 152 152 149 146 147 153 150 137 119 124 143 141 133 134 139 149 152 148 139 139 139 140 153 164 174 193 205 207 209 205 203 208 215 218 219 221 226 226 229 243 254 255 255 249 247 238 214 205 207 207 211 214 213 218 220 221 224 228 229 228 226
165 163 160 151 141 139 146 147 140 116 113 130 124 115 134 146 144 134 128 128 144 159 160 150 140 151 173 194 201 207 204 190 184 208 220 219 218 223 226 229 238 248 251 250 245 238 226 213 205 203 205 208 211 212 216 221 224 226 228 231 233 231
167 171 168 157 138 126 128 136 136 123 118 120 103 97 121 141 145 139 134 128 131 146 161 157 133 132 143 153 160 183 199 188 179 194 212 219 221 223 229 236 238 242 246 248 249 237 221 221 214 209 213 215 214 215 215 218 223 226 228 232 234 234
156 163 166 159 144 136 135 137 134 124 124 128 112 106 119 135 144 148 148 144 135 126 136 160 147 130 139 149 147 158 177 173 167 173 195 213 221 225 232 241 242 243 242 244 256 246 228 233 225 215 216 219 219 222 223 219 219 224 228 232 236 237
154 155 159 160 156 154 153 151 147 136 128 130 127 119 124 137 147 154 160 164 167 147 134 139 133 127 147 165 187 212 208 203 196 150 191 219 226 231 233 236 237 239 238 237 249 250 235 233 235 223 215 215 219 225 232 228 223 224 227 230 233 237
160 159 162 166 169 172 172 169 166 158 142 132 130 126 124 132 143 150 169 177 180 185 178 166 154 136 125 127 142 162 197 223 226 163 136 247 247 246 245 245 245 240 231 230 239 245 233 214 219 224 211 212 220 224 232 231 228 229 230 230 229 234
165 166 167 172 176 180 185 181 172 167 157 140 127 122 121 120 112 102 139 164 162 171 183 162 159 103 91 94 89 91 81 76 92 121 110 47 317 280 268 263 263 258 240 233 237 240 235 221 214 222 213 226 234 229 230 228 228 234 236 235 230 230
171 170 170 175 182 186 188 182 171 165 158 146 135 130 126 125 120 106 121 142 152 159 167 156 135 92 87 92 84 85 82 70 68 76 78 51 17 351 327 305 289 273 259 254 248 237 235 229 226 233 218 228 247 228 230 231 230 234 238 239 235 232
178 174 172 178 188 189 183 174 166 160 155 151 147 145 139 137 146 156 140 144 170 184 211 170 148 117 97 92 70 61 71 62 61 60 55 48 37 23 3 348 340 311 275 265 257 233 223 221 222 229 211 175 255 205 226 234 231 234 236 241 241 238
182 177 175 177 182 180 172 165 159 154 154 155 155 158 160 159 163 175 177 178 197 217 72 139 155 156 126 104 78 48 256 272 32 50 43 43 37 30 16 357 350 341 316 289 274 247 229 222 220 224 217 190 109 355 250 223 221 236 237 240 243 241
184 180 178 176 177 176 170 166 163 161 161 162 166 172 175 172 172 179 188 196 189 118 96 111 147 169 162 133 114 89 153 211 209 210 30 36 30 27 28 17 4 348 341 333 314 283 258 244 235 234 228 218 213 241 285 300 177 245 243 241 244 244
186 183 180 178 181 183 178 175 176 177 176 174 173 176 181 178 175 181 186 192 174 136 110 95 112 133 136 138 138 125 133 158 185 211 245 292 10 23 31 25 20 10 358 351 343 327 311 291 269 260 246 234 232 231 241 251 229 249 263 247 245 246
189 186 183 183 188 191 189 186 186 185 184 184 179 175 179 180 175 175 175 173 166 156 146 120 113 123 138 166 182 206 245 241 238 275 290 281 328 349 360 2 1 7 2 359 360 347 336 333 306 287 274 261 255 246 248 257 258 242 184 228 259 253
191 190 187 188 193 197 196 192 189 186 185 188 184 176 178 180 174 171 169 168 163 165 171 157 140 134 145 166 174 162 13 32 18 3 334 313 313 321 334 342 341 347 351 352 358 350 340 339 324 306 295 285 277 268 264 264 259 247 226 230 266 265
194 193 191 191 196 196 196 194 190 187 186 187 184 178 178 181 178 175 174 172 167 171 179 177 178 175 173 176 121 88 74 70 57 42 27 6 346 332 330 331 335 337 338 340 340 342 341 333 324 314 301 287 277 271 266 261 250 244 240 242 248 258
195 195 194 194 196 196 195 196 193 192 192 191 188 183 180 181 181 179 180 179 174 175 177 181 188 191 196 195 153 115 88 76 55 36 21 6 352 341 332 324 325 328 330 334 333 330 328 323 322 317 307 292 276 266 259 257 253 244 232 231 242 254
195 195 195 195 196 198 197 198 196 196 197 194 192 190 186 186 187 187 185 181 179 182 184 187 190 192 197 196 179 129 58 39 22 12 358 344 329 320 316 314 315 319 325 330 331 328 324 321 317 313 314 308 295 281 266 260 259 252 241 238 240 245
196 196 196 196 197 199 200 200 198 199 200 197 195 196 195 196 196 195 191 184 184 188 191 196 199 202 206 207 216 265 319 336 347 348 343 338 331 324 319 316 314 314 317 321 324 327 325 324 319 314 315 314 310 301 288 277 269 259 251 246 241 240
198 197 196 198 198 200 202 203 201 202 204 202 201 203 203 205 204 200 197 192 192 192 194 201 207 211 212 211 221 250 283 299 315 327 333 336 337 338 333 326 320 315 312 311 311 314 319 320 316 314 317 317 313 307 302 296 284 269 260 254 246 240
200 197 197 198 199 201 204 204 203 205 207 208 208 207 208 212 210 203 200 199 199 198 200 204 207 210 211 212 228 251 267 275 293 314 327 333 333 334 332 328 324 318 313 309 303 303 309 315 316 315 317 318 314 307 305 305 298 287 274 265 255 247
201 199 198 199 200 202 204 205 204 206 209 211 211 210 210 211 208 206 204 203 202 201 202 203 202 205 210 219 238 252 258 266 284 306 318 322 319 319 321 322 321 318 314 311 308 305 305 309 314 316 315 315 314 309 309 310 309 305 292 278 266 257
202 201 200 200 202 203 203 204 205 206 208 210 209 209 209 206 206 207 207 205 203 201 201 203 201 204 211 220 233 243 250 261 278 294 301 304 309 311 312 312 310 310 310 308 308 309 308 309 311 313 313 313 314 310 311 315 314 315 309 296 282 269
Height
811 811 812 812 813 813 813 814 814 815 816 817 817 818 819 820 820 821 822 822 822 823 823 824 825 826 827 827 828 829 829 829 831 832 832 833 834 835 836 836 837 838 839 840 841 842 842 843 844 845 846 846 846 845 845 845 845 846 847 847 847 847
811 811 812 812 813 813 814 814 815 815 816 817 817 818 819 819 820 821 821 821 822 823 823 824 825 826 827 828 828 829 829 830 831 833 833 833 834 835 836 837 837 838 839 840 841 842 842 843 844 845 846 847 847 846 846 846 846 847 847 847 848 848
811 812 812 813 813 813 814 814 815 816 816 817 818 818 819 819 820 820 821 821 822 822 823 824 825 826 827 828 829 829 829 830 832 833 834 834 835 836 836 837 837 838 839 840 841 842 842 843 844 845 846 847 847 847 847 847 847 847 847 847 848 848
811 812 812 813 813 814 814 815 815 816 817 817 818 818 819 819 820 820 820 820 821 822 824 825 826 826 827 828 828 829 830 830 832 833 834 835 835 836 837 837 838 838 839 840 840 841 842 842 843 844 845 846 847 847 847 847 848 848 848 848 848 848
812 812 813 813 813 814 814 815 815 816 817 817 818 818 818 819 819 819 820 820 821 823 824 825 826 826 827 828 828 829 830 830 831 832 833 835 835 836 837 838 838 839 839 840 840 841 842 842 843 844 844 846 847 847 847 848 848 848 848 848 848 848
813 813 813 814 814 814 814 815 815 816 816 817 817 818 818 818 818 819 820 821 821 823 824 825 826 826 827 828 828 829 830 830 831 831 833 834 835 836 837 838 838 839 839 840 840 841 842 842 842 843 844 845 847 847 847 848 848 849 848 848 848 848
813 813 813 814 814 814 814 815 815 816 816 816 817 817 818 818 818 819 819 820 821 822 823 824 825 826 826 827 828 829 830 830 830 831 832 834 835 836 837 838 839 839 840 840 841 841 841 842 842 843 844 845 846 847 847 848 848 849 848 848 848 848
812 812 813 813 814 814 814 815 815 815 816 816 817 817 817 818 818 818 819 820 821 822 823 824 825 825 825 826 828 829 829 830 830 831 832 834 835 836 837 838 839 840 840 841 841 841 841 841 842 843 844 845 846 846 846 847 847 848 848 848 848 848
812 812 812 813 814 814 815 815 815 815 816 816 816 817 817 817 818 818 819 820 821 821 822 823 825 825 825 826 827 827 828 829 829 830 831 833 835 836 837 837 839 839 840 841 841 841 841 841 842 842 844 845 845 845 845 846 846 847 847 848 848 848
811 812 813 813 814 814 815 815 815 815 815 816 816 816 816 817 817 818 819 820 820 820 821 822 824 825 825 825 826 826 826 826 827 828 829 832 834 836 837 837 838 839 840 840 841 841 841 841 841 842 843 844 845 845 845 845 846 847 847 847 847 847
812 812 813 814 814 814 815 815 815 815 815 816 816 816 816 816 817 817 819 819 820 820 821 822 823 825 825 824 824 824 825 825 826 827 828 830 832 834 836 836 837 838 839 839 840 840 841 841 841 841 842 843 843 843 844 844 845 846 846 847 847 847
812 813 813 814 814 814 815 815 816 816 816 816 816 816 816 816 817 817 819 819 820 820 820 821 823 824 823 821 821 823 825 825 826 827 828 829 831 833 834 835 836 837 838 838 839 839 840 840 840 840 841 842 843 843 843 843 843 844 845 845 846 846
813 814 814 814 814 815 815 816 816 816 816 816 816 816 816 816 817 817 818 819 820 820 820 821 822 822 821 821 821 822 824 824 825 827 828 829 830 832 833 834 835 835 836 837 837 838 838 839 839 839 840 841 842 842 842 842 842 842 843 844 844 845
814 814 814 815 815 815 816 816 817 817 817 817 817 816 816 816 817 817 818 819 820 820 820 821 821 821 822 822 822 822 823 823 824 826 827 828 829 830 831 832 833 834 834 835 836 836 836 837 838 838 839 840 841 842 842 842 841 841 842 842 843 844
814 814 814 815 815 816 817 817 817 817 817 817 817 817 817 817 817 817 818 818 819 820 820 820 821 821 821 822 822 822 823 823 824 825 826 827 828 829 830 831 832 832 832 833 834 835 835 835 836 837 838 839 840 841 842 842 841 841 841 841 841 841
813 814 815 816 816 817 817 817 818 818 818 818 818 818 818 817 817 817 818 818 819 819 819 819 820 820 821 821 822 822 823 824 825 825 826 826 827 828 830 831 831 830 830 831 832 833 833 834 835 835 836 837 838 839 840 841 841 840 840 840 840 840
813 814 815 816 817 817 817 818 818 819 818 818 818 818 818 818 818 818 818 818 818 818 818 819 819 820 820 821 821 822 822 823 825 825 825 825 826 828 829 830 830 829 829 830 831 831 832 833 834 834 834 835 835 836 837 839 839 840 839 839 839 839
812 814 815 816 817 818 818 818 819 819 819 819 819 819 819 819 819 819 819 818 818 818 818 819 819 819 819 820 821 822 822 823 824 825 825 825 826 827 828 829 829 829 829 829 830 830 831 832 833 833 834 833 833 834 835 836 837 838 838 837 837 837
812 813 815 816 817 818 818 819 819 820 820 820 820 820 820 820 820 819 819 819 818 818 818 819 819 819 820 820 821 821 822 822 824 824 825 825 826 826 827 828 828 829 829 829 830 830 830 831 832 832 832 833 833 833 833 834 835 836 836 836 836 835
810 812 814 816 817 818 819 819 820 820 820 820 820 820 821 820 820 820 819 819 818 818 819 819 819 819 820 820 821 821 822 822 823 824 824 824 825 825 826 826 827 828 828 828 829 830 829 829 831 832 832 832 832 832 832 833 833 834 834 835 835 834
808 811 813 814 816 817 818 819 820 820 820 820 821 821 820 821 820 820 819 819 818 819 819 819 819 820 820 820 821 821 821 822 823 824 824 824 824 825 825 825 825 826 827 827 827 828 829 829 831 832 831 830 831 830 831 831 831 832 832 833 834 834
806 808 811 813 815 816 817 818 819 820 820 820 821 821 821 821 820 820 819 819 819 819 819 819 819 819 820 820 821 821 821 822 822 822 823 823 824 824 824 825 824 825 825 826 826 826 827 827 829 830 829 830 830 829 829 829 830 830 830 831 832 832
805 807 809 811 813 815 816 817 818 819 820 820 821 821 821 821 820 820 819 819 819 819 819 819 820 820 820 820 820 821 821 822 822 822 822 822 823 823 823 823 823 824 823 824 825 826 825 825 826 828 830 831 830 829 829 828 827 828 828 829 830 830
805 806 807 809 812 814 816 817 818 819 820 820 820 821 821 821 820 820 819 819 819 819 819 819 820 820 820 820 820 821 821 821 821 822 822 822 822 822 822 823 823 823 823 823 825 826 827 825 825 828 829 830 830 830 829 827 825 826 827 828 828 828
804 805 806 808 811 813 815 816 817 819 820 820 820 821 821 821 820 820 820 819 819 819 819 820 820 821 821 821 821 821 821 821 821 821 821 822 822 822 823 823 823 824 824 824 824 825 826 825 826 828 827 825 828 830 829 826 825 825 824 825 826 827
803 804 805 807 809 812 813 815 816 817 818 819 819 820 820 820 820 820 820 819 820 820 820 820 820 821 821 821 821 821 821 821 821 821 822 822 823 823 824 824 824 824 824 824 824 824 824 824 825 827 826 824 826 829 828 827 827 825 823 823 824 825
802 803 804 806 808 811 812 813 815 816 817 817 818 819 819 820 820 820 820 820 820 820 820 820 820 821 822 822 822 821 821 821 821 822 822 823 823 824 824 825 825 824 824 823 823 823 824 823 823 823 824 825 825 827 828 828 827 826 824 823 823 823
800 802 803 804 807 809 811 812 814 815 816 817 818 818 819 820 820 820 820 820 820 820 820 821 821 821 822 822 822 822 822 821 822 822 822 822 823 823 824 825 825 825 824 824 824 823 823 823 823 823 823 824 824 825 827 826 825 825 825 824 823 822
799 800 801 803 805 808 810 811 813 814 816 817 818 819 819 819 820 820 820 820 820 820 821 821 822 822 822 822 822 822 822 821 821 822 822 822 822 823 823 824 825 825 825 825 825 824 824 824 824 824 824 823 823 824 824 823 823 823 823 825 824 822
796 798 800 801 804 806 809 810 812 813 815 816 817 818 819 819 819 819 820 820 820 821 821 821 822 822 822 822 822 822 822 822 821 821 821 821 821 822 822 823 824 825 826 826 826 825 825 824 824 824 824 824 823 823 823 822 822 822 822 823 823 821
794 796 798 799 802 805 807 809 811 812 813 815 816 817 818 818 819 819 820 820 820 821 821 822 822 822 823 823 823 823 823 823 822 822 822 821 821 821 821 821 822 823 824 825 826 826 825 825 825 824 824 824 823 823 823 822 821 821 822 822 822 821
792 794 795 797 800 802 805 807 809 810 811 813 814 815 816 817 817 818 819 820 820 821 821 822 822 822 823 823 823 823 823 823 823 822 822 821 821 821 820 820 821 821 822 823 824 825 825 825 825 825 824 824 823 822 822 821 820 820 821 820 820 820
789 791 793 794 797 800 802 804 806 808 809 811 812 813 814 815 816 817 818 819 820 820 821 821 822 822 822 823 823 823 823 823 823 822 822 822 821 820 820 820 820 820 820 821 822 823 823 824 824 824 824 823 823 822 821 820 820 820 819 819 819 818
786 788 790 792 795 798 800 802 804 806 807 809 810 811 812 813 815 816 817 818 819 819 820 820 821 821 822 822 823 823 823 823 823 823 822 822 821 820 820 819 819 819 819 819 820 820 821 821 822 822 822 822 821 821 820 819 819 819 818 818 817 816
784 786 787 789 792 795 797 800 802 804 805 807 808 809 811 812 813 814 816 817 818 819 819 820 820 821 821 821 822 822 822 823 823 823 822 822 821 820 820 819 819 818 818 818 818 818 818 819 819 820 820 820 819 819 819 818 818 817 816 816 815 815
781 783 784 786 788 791 795 797 799 801 803 805 806 807 809 810 811 813 814 816 817 818 819 819 820 820 821 821 821 822 822 822 822 822 822 822 821 821 820 819 818 818 818 817 817 817 817 817 817 817 817 818 817 817 817 817 816 815 815 814 813 813
779 781 782 783 785 788 791 794 797 799 801 803 804 805 806 808 810 811 813 814 816 817 818 819 819 820 820 821 821 821 821 822 822 822 822 822 821 821 820 819 819 818 817 817 817 817 816 816 816 816 816 816 815 815 814 814 814 813 813 812 811 811